Location: Cisewo
(53.3833°N, 14.9000°E)
Time: 14:01:21
(UTC+00:00)

Cosmos 1328 Rocket - Pass Details

Date: 18 April 2021
Orbit: 601 x 627 km, 82.5° (Epoch: 16 May)

Event Time Altitude Azimuth Distance (km) Brightness Sun altitude
Exits shadow 22:57:28 70° 47° (NE) 673 3.7 -25.4°
Drops below altitude 10° 23:01:32 10° 14° (NNE) 2,018 7.2 -25.4°
Sets 23:03:47 0° 13° (NNE) 2,930 8.3 -25.4°
